Renton, WA

4:27 AM PDT on April 23, 2017 (GMT -0700)
Renton Municipal

Weather History for KRNT - June, 2014

Change the Weather History Date:

Saturday, June 14, 2014

  Actual Average Record
Temperature  
Mean Temperature 59 °F -  
Max Temperature 64 °F 68 °F 84 °F (1999)
Min Temperature 55 °F 52 °F 48 °F (2016)
Degree Days  
Heating Degree Days 6    
Growing Degree Days 9 (Base 50)    
Moisture  
Dew Point 49 °F    
Average Humidity 73    
Maximum Humidity 96    
Minimum Humidity 60    
Precipitation  
Precipitation 0.02 in - - ()
Sea Level Pressure  
Sea Level Pressure 30.09 in    
Wind  
Wind Speed 7 mph (SSE)    
Max Wind Speed 10 mph    
Max Gust Speed 21 mph    
Visibility 10 miles    
Events Rain    
Averages and records for this station are not official NWS values.
T = Trace of Precipitation, MM = Missing Value Source: NWS Daily Summary

Daily Weather History Graph

Daily Weather History Graph

Search for Another Location

Airport or City:

Trip Planner

Search our weather history database for the weather conditions in past years. The results will help you decide how hot, cold, wet, or windy it might be!

Date:

Astronomy

Jun. 14, 2014 Rise Set
Actual Time 5:11 AM PDT 9:07 PM PDT
Civil Twilight 4:30 AM PDT 9:47 PM PDT
Nautical Twilight 3:35 AM PDT 10:43 PM PDT
Astronomical Twilight 2:08 AM PDT 12:11 AM PDT
Moon 10:25 PM PDT (6/14) 7:08 AM PDT (6/14)
Length of Visible Light 17h 17m
Length of Day
15h 56m
Waning Gibbous, 96% of the Moon is Illuminated
Jun 14
Waning Gibbous
Jun 19
Last Quarter
Jun 27
New
Jul 5
First Quarter
Jul 12
Full

Hourly Weather History & Observations

Time (PDT) Temp. Dew Point Humidity Pressure Visibility Wind Dir Wind Speed Gust Speed Precip Events Conditions
12:53 AM 55.9 °F 45.0 °F 67% 30.13 in 10.0 mi SSE 10.4 mph 20.7 mph N/A   Overcast
1:32 AM 55.9 °F 46.0 °F 69% 30.11 in 10.0 mi SE 8.1 mph - N/A   Overcast
1:53 AM 55.9 °F 46.0 °F 69% 30.13 in 10.0 mi SSE 6.9 mph - N/A   Overcast
2:53 AM 55.9 °F 46.9 °F 72% 30.13 in 10.0 mi SSE 5.8 mph - N/A   Overcast
3:53 AM 55.0 °F 46.9 °F 74% 30.13 in 10.0 mi SSE 8.1 mph - N/A   Overcast
4:53 AM 55.0 °F 46.9 °F 74% 30.12 in 10.0 mi SE 8.1 mph - N/A   Overcast
5:53 AM 55.0 °F 46.9 °F 74% 30.12 in 10.0 mi SSE 8.1 mph - N/A   Overcast
6:53 AM 55.0 °F 46.9 °F 74% 30.12 in 10.0 mi SE 8.1 mph - N/A   Overcast
7:53 AM 55.0 °F 46.9 °F 74% 30.12 in 10.0 mi SSE 8.1 mph - N/A   Overcast
8:53 AM 57.0 °F 46.9 °F 69% 30.12 in 10.0 mi South 6.9 mph - N/A   Overcast
9:53 AM 57.0 °F 48.0 °F 72% 30.12 in 10.0 mi South 6.9 mph - N/A   Overcast
10:53 AM 57.0 °F 48.0 °F 72% 30.12 in 10.0 mi South 8.1 mph - N/A   Overcast
11:53 AM 57.0 °F 48.0 °F 72% 30.13 in 10.0 mi SSE 5.8 mph - N/A   Overcast
12:53 PM 60.1 °F 48.0 °F 64% 30.12 in 10.0 mi South 8.1 mph - N/A   Overcast
1:53 PM 61.0 °F 48.9 °F 64% 30.12 in 10.0 mi South 8.1 mph - N/A   Overcast
2:00 PM 61.0 °F 48.9 °F 64% 30.10 in 10.0 mi South 5.8 mph - N/A   Overcast
2:53 PM 61.0 °F 48.0 °F 62% 30.11 in 10.0 mi Calm Calm - N/A   Overcast
3:53 PM 63.0 °F 50.0 °F 63% 30.09 in 10.0 mi East 5.8 mph - N/A   Overcast
4:53 PM 62.1 °F 48.9 °F 62% 30.08 in 10.0 mi Calm Calm - N/A   Overcast
5:53 PM 63.0 °F 48.9 °F 60% 30.06 in 10.0 mi East 3.5 mph - N/A   Overcast
6:53 PM 62.1 °F 48.9 °F 62% 30.04 in 10.0 mi Calm Calm - N/A   Overcast
7:34 PM 57.9 °F 53.1 °F 84% 30.03 in 5.0 mi Calm Calm - 0.02 in Rain Light Rain
7:53 PM 57.0 °F 53.1 °F 87% 30.04 in 7.0 mi Calm Calm - 0.02 in   Overcast
8:53 PM 57.0 °F 54.0 °F 89% 30.03 in 10.0 mi Calm Calm - N/A   Overcast
9:53 PM 57.0 °F 55.9 °F 96% 30.02 in 9.0 mi East 4.6 mph - N/A   Overcast
10:53 PM 57.0 °F 53.1 °F 87% 30.01 in 10.0 mi SSE 8.1 mph - N/A   Overcast
11:53 PM 55.9 °F 52.0 °F 87% 30.01 in 10.0 mi South 9.2 mph - N/A   Overcast